Regional Weather Roundup
Issued by NWS Cleveland, OH

Home | Current Version | Previous Version | Text Only | Print | Product List | Glossary Off
Versions: 1 2 3 4 5 6 7 8 9 10 11 12 13 14 15 16 17 18 19 20 21 22 23 24 25 26 27 28 29 30 31 32 33 34 35 36 37 38 39 40 41 42 43 44 45 46 47 48 49 50

000
ASUS41 KCLE 172210
RWRCLE
OHIO REGIONAL WEATHER ROUNDUP
NATIONAL WEATHER SERVICE CLEVELAND, OH
500 PM EST TUE JAN 17 2017

NOTE: "FAIR" INDICATES FEW OR NO CLOUDS BELOW 12,000 FEET WITH NO
SIGNIFICANT WEATHER AND/OR OBSTRUCTIONS TO VISIBILITY.

OHZ001>008-015>018-024>027-034-035-043-044-172300-
   NORTHWEST OHIO

CITY           SKY/WX    TMP DP  RH WIND       PRES   REMARKS
DEFIANCE       CLOUDY    45  41  86 W9G17     29.88R
FINDLAY        CLOUDY    48  42  80 W21       29.87R
TOLEDO EXPRESS CLOUDY    45  44  97 W22G30    29.86R
TOLEDO EXEC    CLOUDY    48  45  89 W22       29.86R
LIMA           CLOUDY    47  44  90 W21       29.89R
$$

OHZ009>014-019>023-028>033-038-089-172300-
   NORTHEAST OHIO

CITY           SKY/WX    TMP DP  RH WIND       PRES   REMARKS
CLE-HOPKINS    CLOUDY    55  45  68 W13       29.85R
CLE-LAKEFRONT  CLOUDY    42  39  89 W8        29.82R
CUY CO. ARPT   CLOUDY    50  32  50 W15       29.83R
LORAIN-ELYRIA  CLOUDY    52  43  71 W16G23    29.84R
ASHTABULA      NOT AVBL
AKRON-CANTON   CLOUDY    67  45  45 W15       29.84R
WOOSTER        CLOUDY    53  46  77 W12       29.85R
MANSFIELD      CLOUDY    52  46  80 W6        29.86R
YOUNGSTOWN     CLOUDY    56  46  69 W15       29.83R
$$

OHZ042-051>053-060>062-070>072-077>081-172300-
  SOUTHWEST OHIO

CITY           SKY/WX    TMP DP  RH WIND       PRES   REMARKS
CINC-COVINGTON MOCLDY    53  43  68 W15       29.95R
CINC-LUNKEN    MOCLDY    55  46  71 W14       29.96R
HAMILTON       CLOUDY    53  45  74 W12G22    29.96R
DAYTON         CLOUDY    48  43  82 W18       29.93R
WRIGHT-PAT AFB CLOUDY    51  46  83 W17       29.91R
DAYTON GENERAL CLOUDY    51  45  79 W15G21    29.92R
WILMINGTON     MOCLDY    53  45  74 W22G28    29.92R
$$

OHZ036-037-039>041-045>050-054>059-063>069-073>076-082>088-172300-
  CENTRAL AND SOUTHEAST OHIO

CITY           SKY/WX    TMP DP  RH WIND       PRES   REMARKS
COLUMBUS       CLOUDY    58  47  66 W16G23    29.87S
OSU AIRPORT    CLOUDY    55  46  71 W10       29.88R
BOLTON FIELD   CLOUDY    55  48  76 W15       29.89R
RICKENBACK AFB   N/A     56  48  75 W17G31    29.88S
NEWARK         MOCLDY    57  47  69 W13       29.86R
MARION         CLOUDY    52  44  74 W15G26    29.88R
LANCASTER      CLOUDY    58  50  75 W8        29.89S
ZANESVILLE     CLOUDY    58  49  72 W12       29.87R
NEW PHILLY     NOT AVBL
$$




USA.gov is the U.S. government's official web portal to all federal, state and local government web resources and services.